Cozumel Airport, Mexico

11:08 PM EST on August 31, 2016 (GMT -0500)
Cozumel International

Weather History for MMCZ - October, 2011

Change the Weather History Date:

Thursday, October 20, 2011

  Actual Average Record
Temperature  
Mean Temperature 74 °F -  
Max Temperature 78 °F 86 °F 91 °F (2006)
Min Temperature 69 °F 75 °F 64 °F (2013)
Cooling Degree Days 8    
Growing Degree Days 24 (Base 50)    
Moisture  
Dew Point 62 °F    
Average Humidity 67    
Maximum Humidity 94    
Minimum Humidity 54    
Precipitation  
Precipitation 0.00 in - - ()
Sea Level Pressure  
Sea Level Pressure 30.05 in    
Wind  
Wind Speed 8 mph ()    
Max Wind Speed 14 mph    
Max Gust Speed -    
Visibility 7.5 miles    
Events      
Averages and records for this station are not official NWS values.
T = Trace of Precipitation, MM = Missing Value Source: Averaged Metar Reports

Daily Weather History Graph

Daily Weather History Graph

Search for Another Location

Airport or City:

Trip Planner

Search our weather history database for the weather conditions in past years. The results will help you decide how hot, cold, wet, or windy it might be!

Date:

Astronomy

Oct. 20, 2011 Rise Set
Actual Time 6:44 AM CDT 6:20 PM CDT
Civil Twilight 6:22 AM CDT 6:42 PM CDT
Nautical Twilight 5:56 AM CDT 7:08 PM CDT
Astronomical Twilight 5:30 AM CDT 7:34 PM CDT
Moon 12:23 AM CDT (10/20) 1:39 PM CDT (10/20)
Length of Visible Light 12h 20m
Length of Day
11h 35m
Last Quarter, 44% of the Moon is Illuminated
Oct 20
Last Quarter
Oct 26
New
Nov 2
First Quarter
Nov 10
Full
Nov 18
Last Quarter

Hourly Weather History & Observations

Time (CDT) Temp. Dew Point Humidity Pressure Visibility Wind Dir Wind Speed Gust Speed Precip Events Conditions
12:41 AM 69.8 °F 62.6 °F 78% 30.00 in 7.0 mi NNW 9.2 mph - N/A   Scattered Clouds
2:41 AM 69.8 °F 60.8 °F 73% 30.02 in 7.0 mi NNW 9.2 mph - N/A   Scattered Clouds
3:42 AM 69.8 °F 57.2 °F 64% 30.04 in 7.0 mi North 8.1 mph - N/A   Scattered Clouds
4:41 AM 69.8 °F 59.0 °F 68% 30.01 in 7.0 mi North 9.2 mph - N/A   Scattered Clouds
5:43 AM 69.8 °F 59.0 °F 68% 30.02 in 7.0 mi North 5.8 mph - N/A   Clear
6:41 AM 69.8 °F 60.8 °F 73% 30.01 in 7.0 mi North 5.8 mph - N/A   Scattered Clouds
7:42 AM 69.8 °F 62.6 °F 78% 30.06 in 7.0 mi NW 10.4 mph - N/A   Mostly Cloudy
8:40 AM 73.4 °F 62.6 °F 69% 30.07 in 8.0 mi WNW 6.9 mph - N/A   Mostly Cloudy
9:42 AM 75.2 °F 62.6 °F 65% 30.12 in 8.0 mi NNW 13.8 mph - N/A   Mostly Cloudy
10:47 AM 77.0 °F 64.4 °F 65% 30.10 in 8.0 mi NNW 10.4 mph - N/A   Scattered Clouds
11:42 AM 77.0 °F 64.4 °F 65% 30.09 in 8.0 mi North 9.2 mph - N/A   Mostly Cloudy
12:44 PM 77.0 °F 64.4 °F 65% 30.05 in 8.0 mi NNW 11.5 mph - N/A   Mostly Cloudy
1:41 PM 78.8 °F 62.6 °F 57% 30.05 in 8.0 mi NNW 11.5 mph - N/A   Scattered Clouds
2:43 PM 78.8 °F 60.8 °F 54% 30.03 in 8.0 mi NNW 13.8 mph - N/A   Scattered Clouds
3:51 PM 77.0 °F 62.6 °F 61% 30.05 in 8.0 mi North 10.4 mph - N/A   Scattered Clouds
4:42 PM 77.0 °F 60.8 °F 57% 30.02 in 8.0 mi NNW 10.4 mph - N/A   Scattered Clouds
5:47 PM 75.2 °F 60.8 °F 61% 30.03 in 8.0 mi North 9.2 mph - N/A   Scattered Clouds
6:43 PM 73.4 °F 59.0 °F 61% 30.01 in 7.0 mi North 12.7 mph - N/A   Partly Cloudy
7:46 PM 71.6 °F 59.0 °F 64% 30.05 in 7.0 mi North 8.1 mph - N/A   Clear
8:42 PM 71.6 °F 59.0 °F 64% 30.07 in 7.0 mi North 10.4 mph - N/A   Clear
9:41 PM 71.6 °F 69.8 °F 94% 30.12 in 7.0 mi North 10.4 mph - N/A   Clear
10:41 PM 71.6 °F 62.6 °F 73% 30.10 in 7.0 mi North 9.2 mph - N/A   Clear